Regional Weather Roundup
Issued by NWS

Home | Current Version | Previous Version | Graphics & Text | Print | Product List | Glossary On
Versions: 1 2 3 4 5 6 7 8 9 10 11 12 13 14 15 16 17 18 19 20 21 22 23 24 25 26 27 28 29 30 31 32 33 34 35 36 37 38 39 40 41 42 43 44 45 46 47 48 49 50
000
ASUS43 KLSX 262259
RWRMO

WEATHER SUMMARY FOR MISSOURI
NATIONAL WEATHER SERVICE SPRINGFIELD MO
600 PM CDT SUN APR 26 2015

NOTE: "FAIR" INDICATES FEW OR NO CLOUDS BELOW 12,000 FEET WITH NO
       SIGNIFICANT WEATHER AND/OR OBSTRUCTIONS TO VISIBILITY.
       CURRENT SKY AND/OR WEATHER CONDITIONS ARE NOT AVAILABLE FOR
       CHILLICOTHE AND FARMINGTON.

MOZ001>031-035>038-043-044-053-054-270000-
...NORTHERN AND WESTERN MISSOURI...

CITY           SKY/WX    TMP DP  RH WIND       PRES   REMARKS
KANSAS CTY INT SUNNY     61  38  42 E17       29.93S
KANSAS C DTWN  SUNNY     63  38  39 E16G23    29.92S
LEE`S SUMMIT   SUNNY     62  37  39 NE14      29.92F
ST JOSEPH      SUNNY     64  38  38 NE14G22   29.95S
CHILLICOTHE      N/A     63  38  39 NE10G17   29.97S
KIRKSVILLE     SUNNY     60  37  42 NE14      29.98R

$$
MOZ066>068-077>081-088>096-101>105-270000-
...SOUTHWEST MISSOURI...

CITY           SKY/WX    TMP DP  RH WIND       PRES   REMARKS
SPRINGFIELD    CLOUDY    55  45  68 E9        29.89S
JOPLIN         CLOUDY    54  45  71 NE14G21   29.88R

$$
MOZ032>034-039>042-045>050-055>058-069>072-270000-
...CENTRAL MISSOURI...

CITY           SKY/WX    TMP DP  RH WIND       PRES   REMARKS
COLUMBIA       SUNNY     61  37  41 E13       29.94R
JEFFERSON CITY SUNNY     63  32  31 NE13G20   29.92S
ROLLA          SUNNY     61  38  42 NE12      29.90R
SEDALIA        SUNNY     62  36  37 NE12G22   29.93S
OSAGE BEACH    SUNNY     63  36  36 NE10G18   29.90S

$$
MOZ051-052-059>065-270000-
...EAST CENTRAL MISSOURI...

CITY           SKY/WX    TMP DP  RH WIND       PRES   REMARKS
ST LOUIS INTL  MOSUNNY   62  33  33 NE8G20    29.94R
SPIRIT OF STL  SUNNY     62  32  32 N12       29.92S
ST CHARLES     SUNNY     61  35  37 NE14      29.93F

$$
MOZ072>076-082>087-097>100-106>115-270000-
...SOUTH CENTRAL AND SOUTHEAST MISSOURI...

CITY           SKY/WX    TMP DP  RH WIND       PRES   REMARKS
CAPE GIRARDEAU SUNNY     64  38  38 N10       29.87S
FARMINGTON     SUNNY     61  36  39 NE12G21   29.94S
POPLAR BLUFF   CLOUDY    63  47  55 E6        29.87R
WEST PLAINS    CLOUDY    59  46  62 E3        29.88F

$$



USA.gov is the U.S. government's official web portal to all federal, state and local government web resources and services.